Waarnemingen

Advertentie
Mijn weer
Antwerpen, België (6450): temperatuur & dauwpunt: 01.08.2020 18:00:00 - 07.08.2020 18:00:00 (CEST)Antwerpen, België (6450): windsnelheid & windstoten: 01.08.2020 18:00:00 - 07.08.2020 18:00:00 (CEST)Antwerpen, België (6450): windrichting: 01.08.2020 18:00:00 - 07.08.2020 18:00:00 (CEST)Antwerpen, België (6450): luchtdruk: 01.08.2020 18:00:00 - 07.08.2020 18:00:00 (CEST)Antwerpen, België (6450): zicht: 01.08.2020 18:00:00 - 07.08.2020 18:00:00 (CEST)
Datum & Tijd tt [°C] td [°C] ff [km/u] ff [kn] fx [km/u] fx [kn] dd ppp [hPa] vv [km]
07.08.2020 18:00:00 34,0 12,0 8 4 - - ZZO - 10
07.08.2020 17:00:00 33,9 11,8 4 2 - - - 1018,4 10
07.08.2020 16:00:00 33,6 11,2 9 5 18 10 ZZO 1018,8 10
07.08.2020 15:00:00 33,7 11,4 8 4 18 10 O 1019,1 10
07.08.2020 14:00:00 32,7 11,0 4 2 - - - 1019,4 10
07.08.2020 13:00:00 31,9 12,0 8 4 14 8 ZO 1019,7 10
07.08.2020 12:00:00 30,6 13,3 8 4 14 8 ZO 1020,1 10
07.08.2020 11:00:00 29,7 14,3 5 3 - - ZZW 1020,2 10
07.08.2020 10:00:00 26,5 15,5 2 1 7 4 - 1020,1 10
07.08.2020 09:00:00 22,4 14,4 5 3 7 4 OZO 1020,0 10
07.08.2020 08:00:00 19,5 14,5 4 2 - - - 1019,8 10
07.08.2020 07:00:00 15,8 13,2 2 1 4 2 O 1019,5 10
07.08.2020 06:00:00 15,5 12,9 2 1 4 2 O 1019,1 10
07.08.2020 05:00:00 17,1 12,9 2 1 - - OZO 1019,0 10
07.08.2020 04:00:00 17,3 12,5 2 1 4 2 ZO 1019,1 10
07.08.2020 03:00:00 18,4 13,4 2 1 4 2 - 1019,2 10
07.08.2020 02:00:00 18,6 13,2 0 0 - - N 1019,2 10
07.08.2020 01:00:00 20,7 13,2 0 0 4 2 N 1019,2 10
07.08.2020 00:00:00 21,1 13,2 0 0 4 2 N 1019,1 10
06.08.2020 23:00:00 22,8 13,5 4 2 - - O 1018,9 10
06.08.2020 22:00:00 24,7 13,6 4 2 11 6 - 1018,6 10
06.08.2020 21:00:00 27,6 13,4 5 3 11 6 O 1018,2 10
06.08.2020 20:00:00 30,7 11,4 9 5 - - O 1017,9 10
06.08.2020 19:00:00 31,7 9,5 2 1 18 10 - 1017,9 10
06.08.2020 18:00:00 31,7 9,3 5 3 22 12 - 1018,0 10
06.08.2020 17:00:00 31,8 8,6 9 5 - - ZO 1018,2 10
06.08.2020 16:00:00 30,9 8,8 9 5 25 14 ZZO 1018,3 10
06.08.2020 15:00:00 30,8 8,1 13 7 25 14 ZO 1018,6 10
06.08.2020 14:00:00 29,9 9,3 8 4 - - ZO 1018,9 10
06.08.2020 13:00:00 28,6 9,7 11 6 22 12 Z 1019,2 10
06.08.2020 12:00:00 27,7 10,1 13 7 18 10 Z 1019,2 10
06.08.2020 11:00:00 25,1 10,8 9 5 - - ZO 1019,3 10
06.08.2020 10:00:00 23,1 11,8 9 5 11 6 ZO 1019,2 10
06.08.2020 09:00:00 19,8 13,3 4 2 7 4 - 1019,2 10
06.08.2020 08:00:00 17,0 14,1 2 1 - - - 1018,8 10
06.08.2020 07:00:00 13,3 11,6 5 3 7 4 OZO 1018,3 10
06.08.2020 06:00:00 13,2 11,4 2 1 7 4 O 1017,8 10
06.08.2020 05:00:00 13,6 11,5 4 2 - - OZO 1017,5 10
06.08.2020 04:00:00 15,6 12,1 4 2 4 2 - 1017,2 10
06.08.2020 03:00:00 15,9 12,1 4 2 7 4 ZO 1016,9 10
06.08.2020 02:00:00 19,4 12,1 2 1 - - - 1016,6 10
06.08.2020 01:00:00 17,6 12,1 2 1 11 6 - 1016,4 10
06.08.2020 00:00:00 21,2 11,9 5 3 14 8 NNW 1016,1 10
05.08.2020 23:00:00 20,9 11,7 2 1 - - - 1015,8 10
05.08.2020 22:00:00 21,2 12,8 5 3 11 6 ZZO 1015,5 10
05.08.2020 21:00:00 27,4 8,5 8 4 22 12 ZW 1014,9 10
05.08.2020 20:00:00 28,3 7,0 15 8 - - ZZW 1014,7 10
05.08.2020 19:00:00 28,9 6,8 15 8 25 14 ZZW 1014,6 10
05.08.2020 18:00:00 28,9 6,5 16 9 36 19 ZW 1014,8 10
05.08.2020 17:00:00 29,3 6,1 22 12 - - ZZW 1014,9 10
05.08.2020 16:00:00 28,1 5,9 18 10 36 19 ZW 1015,1 10
05.08.2020 15:00:00 27,6 6,5 16 9 32 18 ZZW 1015,5 10
05.08.2020 14:00:00 27,3 7,3 21 11 - - ZZW 1015,9 10
05.08.2020 13:00:00 25,1 6,7 16 9 32 18 ZW 1016,3 10
05.08.2020 12:00:00 24,6 8,4 15 8 29 16 ZZW 1016,6 10
05.08.2020 11:00:00 23,3 9,1 13 7 - - ZZW 1016,9 10
05.08.2020 10:00:00 21,5 9,2 13 7 22 12 ZZW 1016,8 10
05.08.2020 09:00:00 18,9 8,7 11 6 18 10 ZZW 1016,6 10
05.08.2020 08:00:00 17,0 8,9 11 6 - - ZZW 1016,4 10
05.08.2020 07:00:00 15,4 9,0 11 6 18 10 ZZW 1016,0 10
05.08.2020 06:00:00 15,7 9,4 13 7 18 10 ZZW 1015,7 10
05.08.2020 05:00:00 15,7 9,9 9 5 - - ZZW 1016,0 10
05.08.2020 04:00:00 16,0 10,5 9 5 14 8 ZW 1016,4 10
05.08.2020 03:00:00 16,3 11,8 8 4 11 6 ZW 1016,6 10
05.08.2020 02:00:00 14,2 10,4 5 3 - - ZZW 1016,6 10
05.08.2020 01:00:00 13,9 11,0 5 3 7 4 ZZO 1016,6 10
05.08.2020 00:00:00 14,1 11,0 5 3 11 6 ZO 1016,7 10
04.08.2020 23:00:00 18,9 10,9 8 4 - - NW 1016,9 10
04.08.2020 22:00:00 20,1 10,6 13 7 14 8 WNW 1016,5 10
04.08.2020 21:00:00 22,2 7,6 9 5 18 10 Z 1016,1 10
04.08.2020 20:00:00 22,6 7,3 11 6 - - ZZW 1016,3 10
04.08.2020 19:00:00 23,0 6,7 13 7 25 14 ZW 1016,4 10
04.08.2020 18:00:00 23,0 6,0 9 5 25 14 ZW 1016,7 10
04.08.2020 17:00:00 22,6 6,7 9 5 - - W 1017,2 10
04.08.2020 16:00:00 22,0 6,5 13 7 29 16 W 1017,7 10
04.08.2020 15:00:00 21,2 6,3 8 4 25 14 - 1018,0 10
04.08.2020 14:00:00 21,1 6,8 9 5 - - NW 1018,0 10
04.08.2020 13:00:00 20,6 6,5 8 4 18 10 - 1018,2 10
04.08.2020 12:00:00 19,8 5,9 2 1 18 10 - 1018,3 10
04.08.2020 11:00:00 19,1 7,9 8 4 - - - 1018,5 10
04.08.2020 10:00:00 17,6 8,7 5 3 14 8 NW 1018,5 10
04.08.2020 09:00:00 16,6 11,0 5 3 11 6 NNO 1018,2 10
04.08.2020 08:00:00 15,4 11,5 2 1 - - - 1018,0 10
04.08.2020 07:00:00 11,4 9,9 2 1 4 2 - 1017,4 10
04.08.2020 06:00:00 11,2 9,4 2 1 4 2 - 1017,1 3,1
04.08.2020 05:00:00 13,8 11,1 2 1 - - - 1016,9 10
04.08.2020 04:00:00 14,0 11,4 9 5 11 6 NNW 1016,8 10
04.08.2020 03:00:00 13,7 11,5 8 4 11 6 NNW 1017,0 10
04.08.2020 02:00:00 14,5 12,1 8 4 - - N 1017,1 10
04.08.2020 01:00:00 15,1 12,3 11 6 14 8 NNW 1016,8 10
04.08.2020 00:00:00 15,2 12,0 9 5 22 12 N 1016,1 10
03.08.2020 23:00:00 16,4 11,9 15 8 - - NNW 1015,7 10
03.08.2020 22:00:00 17,0 12,3 13 7 25 14 N 1015,2 10
03.08.2020 21:00:00 17,4 13,0 13 7 22 12 N 1014,5 10
03.08.2020 20:00:00 17,1 12,7 13 7 - - NNW 1014,0 10
03.08.2020 19:00:00 16,5 12,1 11 6 22 12 NNW 1013,9 10
03.08.2020 18:00:00 16,1 12,3 13 7 29 16 N 1013,8 10
03.08.2020 17:00:00 16,3 12,7 16 9 - - N 1014,0 10
03.08.2020 16:00:00 17,9 12,7 22 12 47 25 NNW 1014,0 10
03.08.2020 15:00:00 21,7 8,4 5 3 18 10 WNW 1013,4 10
03.08.2020 14:00:00 21,8 8,4 9 5 - - WNW 1013,5 10
03.08.2020 13:00:00 21,2 10,5 7 4 18 10 W 1013,9 30
03.08.2020 12:00:00 19,7 12,3 4 2 14 8 - 1014,4 10
03.08.2020 11:00:00 18,3 11,4 8 4 - - ZZW 1014,7 10
03.08.2020 10:00:00 18,1 11,5 8 4 14 8 Z 1014,8 10
03.08.2020 09:00:00 15,5 11,5 5 3 11 6 ZZW 1014,9 10
03.08.2020 08:00:00 13,2 11,5 4 2 - - Z 1014,7 10
03.08.2020 07:00:00 12,0 10,5 5 3 7 4 ZO 1014,7 10
03.08.2020 06:00:00 12,1 10,4 4 2 4 2 - 1014,9 10
03.08.2020 05:00:00 11,3 9,3 4 2 - - ZO 1015,2 10
03.08.2020 04:00:00 10,4 8,6 4 2 7 4 ZZO 1015,5 10
03.08.2020 03:00:00 11,6 9,5 4 2 7 4 O 1015,8 10
03.08.2020 02:00:00 11,5 9,3 2 1 - - ZZO 1016,0 10
03.08.2020 01:00:00 12,0 8,8 2 1 4 2 - 1016,3 10
03.08.2020 00:00:00 12,3 8,6 2 1 4 2 - 1016,5 10
02.08.2020 23:00:00 16,5 7,3 0 0 - - N 1016,5 10
02.08.2020 22:00:00 17,0 8,6 5 3 18 10 N 1016,3 10
02.08.2020 21:00:00 19,1 9,5 13 7 29 16 NW 1016,2 10
02.08.2020 20:00:00 20,3 7,5 24 13 - - NW 1016,1 10
02.08.2020 19:00:00 20,7 9,7 21 11 36 19 NW 1016,0 10
02.08.2020 18:00:00 21,6 9,8 21 11 32 18 WNW 1016,0 10
02.08.2020 17:00:00 22,1 10,0 21 11 - - NW 1016,2 10
02.08.2020 16:00:00 22,2 12,0 18 10 32 18 NNW 1016,3 10
02.08.2020 15:00:00 21,2 12,3 24 13 36 19 NW 1016,5 10
02.08.2020 14:00:00 21,7 13,1 18 10 - - NNW 1016,4 10
02.08.2020 13:00:00 21,9 13,3 13 7 29 16 NNW 1016,3 10
02.08.2020 12:00:00 21,1 13,6 15 8 25 14 NW 1016,3 10
02.08.2020 11:00:00 19,8 14,8 9 5 - - W 1016,1 10
02.08.2020 10:00:00 17,3 14,8 15 8 25 14 W 1015,9 10
02.08.2020 09:00:00 16,6 14,1 13 7 25 14 WZW 1015,6 10
02.08.2020 08:00:00 15,9 13,5 13 7 - - WZW 1015,4 10
02.08.2020 07:00:00 15,6 13,1 15 8 22 12 WZW 1015,3 10
02.08.2020 06:00:00 15,8 13,0 9 5 14 8 WZW 1015,4 10
02.08.2020 05:00:00 16,2 13,2 11 6 - - ZW 1015,5 10
02.08.2020 04:00:00 16,8 13,2 11 6 22 12 ZW 1015,5 10
02.08.2020 03:00:00 17,6 13,5 9 5 14 8 ZW 1015,8 10
02.08.2020 02:00:00 18,2 14,4 9 5 - - ZW 1016,2 10
02.08.2020 01:00:00 18,8 14,8 8 4 11 6 W 1016,2 10
02.08.2020 00:00:00 19,6 14,7 8 4 18 10 WNW 1016,2 10
01.08.2020 23:00:00 20,0 14,6 13 7 - - NW 1016,1 10
01.08.2020 22:00:00 20,6 12,2 11 6 22 12 NW 1016,1 10
01.08.2020 21:00:00 21,9 12,5 16 9 29 16 NW 1015,8 10
01.08.2020 20:00:00 23,3 12,7 16 9 - - NW 1015,7 10
01.08.2020 19:00:00 24,0 13,1 21 11 32 18 NNW 1015,5 10
01.08.2020 18:00:00 24,6 14,3 16 9 29 16 NW 1015,6 10

tt = temperatuur
td = dauwpunt
ff = windsnelheid
fx = windstoten
dd = windrichting
ppp = luchtdruk
vv = zicht

Weerstations in de omgeving